Time,TemperatureF,DewpointF,PressureIn,WindDirection,WindDirectionDegrees,WindSpeedMPH,WindSpeedGustMPH,Humidity,HourlyPrecipIn,Conditions,Clouds,dailyrainin,SoftwareType,DateUTC
2013-01-18 00:00:00,60.3,53.4,30.06,NW,306,9.2,9.2,78,0.00,CLR,,0.02,WeatherDisplay:10.37,2013-01-18 05:00:00,
2013-01-18 00:01:00,60.2,53.7,30.06,NW,304,9.2,9.2,79,0.00,CLR,,0.02,WeatherDisplay:10.37,2013-01-18 05:01:00,
2013-01-18 00:06:00,60.0,53.5,30.06,NW,324,11.5,11.5,79,0.00,RA,,0.00,WeatherDisplay:10.37,2013-01-18 05:06:00,
2013-01-18 00:11:00,59.7,53.2,30.06,NW,321,14.0,14.0,79,0.00,CLR,,0.00,WeatherDisplay:10.37,2013-01-18 05:11:00,
2013-01-18 00:16:00,59.5,53.0,30.06,NW,308,10.4,10.4,79,0.00,CLR,,0.00,WeatherDisplay:10.37,2013-01-18 05:16:00,
2013-01-18 00:21:00,59.4,52.9,30.06,NNW,344,10.4,10.4,79,0.00,CLR,,0.00,WeatherDisplay:10.37,2013-01-18 05:21:00,
2013-01-18 00:26:00,59.3,52.4,30.06,NNW,346,15.0,15.0,78,0.00,CLR,,0.00,WeatherDisplay:10.37,2013-01-18 05:26:00,
2013-01-18 00:31:00,59.2,52.3,30.06,WNW,302,13.0,13.0,78,0.00,CLR,,0.00,WeatherDisplay:10.37,2013-01-18 05:31:00,
2013-01-18 00:36:00,59.1,52.2,30.06,NW,309,11.5,11.5,78,0.00,CLR,,0.00,WeatherDisplay:10.37,2013-01-18 05:36:00,
2013-01-18 00:41:00,59.0,52.1,30.06,WNW,299,6.9,6.9,78,0.00,CLR,,0.00,WeatherDisplay:10.37,2013-01-18 05:41:00,
2013-01-18 00:46:00,58.9,51.7,30.06,NW,307,5.8,5.8,77,0.00,CLR,,0.00,WeatherDisplay:10.37,2013-01-18 05:46:00,
2013-01-18 00:51:00,58.8,51.6,30.06,NW,314,10.4,10.4,77,0.00,CLR,,0.00,WeatherDisplay:10.37,2013-01-18 05:51:00,
2013-01-18 00:56:00,58.7,51.5,30.06,NNW,331,9.2,9.2,77,0.00,CLR,,0.00,WeatherDisplay:10.37,2013-01-18 05:56:00,
2013-01-18 01:01:00,58.6,51.1,30.06,NNW,336,10.4,10.4,76,0.00,CLR,,0.00,WeatherDisplay:10.37,2013-01-18 06:01:00,
2013-01-18 01:06:00,58.5,51.0,30.06,NW,325,10.4,10.4,76,0.00,CLR,,0.00,WeatherDisplay:10.37,2013-01-18 06:06:00,
2013-01-18 01:11:00,58.4,50.9,30.07,NW,321,6.9,6.9,76,0.00,CLR,,0.00,WeatherDisplay:10.37,2013-01-18 06:11:00,
2013-01-18 01:16:00,58.3,50.4,30.07,NNW,329,11.5,11.5,75,0.00,CLR,,0.00,WeatherDisplay:10.37,2013-01-18 06:16:00,
2013-01-18 01:21:00,58.2,50.3,30.07,WNW,288,11.5,11.5,75,0.00,CLR,,0.00,WeatherDisplay:10.37,2013-01-18 06:21:00,
2013-01-18 01:26:00,58.0,50.1,30.07,NW,309,10.4,10.4,75,0.00,CLR,,0.00,WeatherDisplay:10.37,2013-01-18 06:26:00,
2013-01-18 01:31:00,57.9,50.4,30.07,NNW,342,11.5,11.5,76,0.00,CLR,,0.00,WeatherDisplay:10.37,2013-01-18 06:31:00,
2013-01-18 01:36:00,57.7,50.2,30.07,North,355,4.0,4.0,76,0.00,CLR,,0.00,WeatherDisplay:10.37,2013-01-18 06:36:00,
2013-01-18 01:41:00,57.6,50.4,30.07,NW,320,7.0,7.0,77,0.00,CLR,,0.00,WeatherDisplay:10.37,2013-01-18 06:41:00,
2013-01-18 01:46:00,57.4,50.6,30.07,NNW,346,9.0,9.0,78,0.00,CLR,,0.00,WeatherDisplay:10.37,2013-01-18 06:46:00,
2013-01-18 01:51:00,57.2,50.1,30.07,NNW,344,11.5,11.5,77,0.00,CLR,,0.00,WeatherDisplay:10.37,2013-01-18 06:51:00,
2013-01-18 01:56:00,57.1,50.0,30.07,WNW,302,6.9,6.9,77,0.00,CLR,,0.00,WeatherDisplay:10.37,2013-01-18 06:56:00,
2013-01-18 02:01:00,56.9,49.8,30.07,NNW,339,11.5,11.5,77,0.00,CLR,,0.00,WeatherDisplay:10.37,2013-01-18 07:01:00,
2013-01-18 02:06:00,56.8,49.7,30.07,NW,308,10.4,10.4,77,0.00,CLR,,0.00,WeatherDisplay:10.37,2013-01-18 07:06:00,
2013-01-18 02:11:00,56.6,49.5,30.07,NNW,333,11.5,11.5,77,0.00,CLR,,0.00,WeatherDisplay:10.37,2013-01-18 07:11:00,
2013-01-18 02:16:00,56.5,49.4,30.07,NNW,331,11.5,11.5,77,0.00,CLR,,0.00,WeatherDisplay:10.37,2013-01-18 07:16:00,
2013-01-18 02:21:00,56.4,48.9,30.07,NW,308,10.4,10.4,76,0.00,CLR,,0.00,WeatherDisplay:10.37,2013-01-18 07:21:00,
2013-01-18 02:26:00,56.3,49.2,30.07,WNW,294,12.7,12.7,77,0.00,CLR,,0.00,WeatherDisplay:10.37,2013-01-18 07:26:00,
2013-01-18 02:31:00,56.3,49.2,30.07,North,355,13.8,13.8,77,0.00,CLR,,0.00,WeatherDisplay:10.37,2013-01-18 07:31:00,
2013-01-18 02:36:00,56.2,48.7,30.07,WNW,283,12.7,12.7,76,0.00,CLR,,0.00,WeatherDisplay:10.37,2013-01-18 07:36:00,
2013-01-18 02:41:00,56.1,48.6,30.07,WNW,302,15.0,15.0,76,0.00,CLR,,0.00,WeatherDisplay:10.37,2013-01-18 07:41:00,
2013-01-18 02:46:00,56.0,48.5,30.08,West,269,12.0,12.0,76,0.00,CLR,,0.00,WeatherDisplay:10.37,2013-01-18 07:46:00,
2013-01-18 02:51:00,56.0,48.5,30.07,NW,313,12.7,12.7,76,0.00,CLR,,0.00,WeatherDisplay:10.37,2013-01-18 07:51:00,
2013-01-18 02:56:00,55.9,48.4,30.08,NNW,340,11.0,11.0,76,0.00,CLR,,0.00,WeatherDisplay:10.37,2013-01-18 07:56:00,
2013-01-18 03:01:00,55.9,48.4,30.08,NW,325,11.5,11.5,76,0.00,CLR,,0.00,WeatherDisplay:10.37,2013-01-18 08:01:00,
2013-01-18 03:06:00,55.8,48.3,30.08,NNW,342,6.9,6.9,76,0.00,CLR,,0.00,WeatherDisplay:10.37,2013-01-18 08:06:00,
2013-01-18 03:11:00,55.7,48.2,30.08,NNW,339,5.8,5.8,76,0.00,CLR,,0.00,WeatherDisplay:10.37,2013-01-18 08:11:00,
2013-01-18 03:16:00,55.6,48.2,30.08,NW,312,12.7,12.7,76,0.00,CLR,,0.00,WeatherDisplay:10.37,2013-01-18 08:16:00,
2013-01-18 03:21:00,55.5,48.1,30.08,North,5,10.4,10.4,76,0.00,CLR,,0.00,WeatherDisplay:10.37,2013-01-18 08:21:00,
2013-01-18 03:26:00,55.4,48.0,30.08,NW,319,11.5,11.5,76,0.00,CLR,,0.00,WeatherDisplay:10.37,2013-01-18 08:26:00,
2013-01-18 03:31:00,55.3,48.2,30.08,WNW,299,5.8,5.8,77,0.00,CLR,,0.00,WeatherDisplay:10.37,2013-01-18 08:31:00,
2013-01-18 03:36:00,55.2,48.1,30.09,NW,317,11.5,11.5,77,0.00,CLR,,0.00,WeatherDisplay:10.37,2013-01-18 08:36:00,
2013-01-18 03:41:00,55.0,47.9,30.09,NW,318,9.2,9.2,77,0.00,CLR,,0.00,WeatherDisplay:10.37,2013-01-18 08:41:00,
2013-01-18 03:46:00,54.8,47.7,30.09,NNW,329,11.5,11.5,77,0.00,CLR,,0.00,WeatherDisplay:10.37,2013-01-18 08:46:00,
2013-01-18 03:51:00,54.6,47.5,30.09,NW,325,12.7,12.7,77,0.00,CLR,,0.00,WeatherDisplay:10.37,2013-01-18 08:51:00,
2013-01-18 03:56:00,54.4,47.7,30.09,NNW,333,9.2,9.2,78,0.00,CLR,,0.00,WeatherDisplay:10.37,2013-01-18 08:56:00,
2013-01-18 04:01:00,54.2,47.5,30.09,NW,321,11.5,11.5,78,0.00,CLR,,0.00,WeatherDisplay:10.37,2013-01-18 09:01:00,
2013-01-18 04:06:00,54.0,47.3,30.09,WNW,299,12.7,12.7,78,0.00,CLR,,0.00,WeatherDisplay:10.37,2013-01-18 09:06:00,
2013-01-18 04:11:00,53.9,47.2,30.09,NNW,340,9.2,9.2,78,0.00,CLR,,0.00,WeatherDisplay:10.37,2013-01-18 09:11:00,
2013-01-18 04:16:00,53.7,47.0,30.09,NNW,331,11.5,11.5,78,0.00,CLR,,0.00,WeatherDisplay:10.37,2013-01-18 09:16:00,
2013-01-18 04:21:00,53.6,47.2,30.09,NNW,338,12.7,12.7,79,0.00,CLR,,0.00,WeatherDisplay:10.37,2013-01-18 09:21:00,
2013-01-18 04:26:00,53.5,47.1,30.10,NNW,337,9.2,9.2,79,0.00,CLR,,0.00,WeatherDisplay:10.37,2013-01-18 09:26:00,
2013-01-18 04:31:00,53.3,47.3,30.10,North,360,9.2,9.2,80,0.00,CLR,,0.00,WeatherDisplay:10.37,2013-01-18 09:31:00,
2013-01-18 04:36:00,53.2,47.2,30.10,NNW,331,11.5,11.5,80,0.00,CLR,,0.00,WeatherDisplay:10.37,2013-01-18 09:36:00,
2013-01-18 04:41:00,53.0,47.0,30.10,NW,319,13.8,13.8,80,0.00,CLR,,0.00,WeatherDisplay:10.37,2013-01-18 09:41:00,
2013-01-18 04:46:00,52.8,46.8,30.10,NW,313,12.7,12.7,80,0.00,CLR,,0.00,WeatherDisplay:10.37,2013-01-18 09:46:00,
2013-01-18 04:51:00,52.6,46.6,30.10,NW,309,13.8,13.8,80,0.00,CLR,,0.00,WeatherDisplay:10.37,2013-01-18 09:51:00,
2013-01-18 04:56:00,52.5,46.8,30.11,NNW,327,10.4,10.4,81,0.00,CLR,,0.00,WeatherDisplay:10.37,2013-01-18 09:56:00,
2013-01-18 05:01:00,52.4,46.7,30.11,NNW,329,6.9,7.0,81,0.00,CLR,,0.00,WeatherDisplay:10.37,2013-01-18 10:01:00,
2013-01-18 05:06:00,52.2,46.5,30.11,NNW,327,11.5,11.5,81,0.00,CLR,,0.00,WeatherDisplay:10.37,2013-01-18 10:06:00,
2013-01-18 05:11:00,52.1,46.8,30.11,North,351,13.8,13.8,82,0.00,CLR,,0.00,WeatherDisplay:10.37,2013-01-18 10:11:00,
2013-01-18 05:16:00,51.9,46.6,30.11,NNW,329,11.5,11.5,82,0.00,CLR,,0.00,WeatherDisplay:10.37,2013-01-18 10:16:00,
2013-01-18 05:21:00,51.8,46.5,30.11,North,360,11.5,11.5,82,0.00,CLR,,0.00,WeatherDisplay:10.37,2013-01-18 10:21:00,
2013-01-18 05:26:00,51.6,46.3,30.11,NW,322,11.5,11.5,82,0.00,CLR,,0.00,WeatherDisplay:10.37,2013-01-18 10:26:00,
2013-01-18 05:31:00,51.4,46.1,30.12,NW,311,10.4,10.4,82,0.00,CLR,,0.00,WeatherDisplay:10.37,2013-01-18 10:31:00,
2013-01-18 05:36:00,51.3,46.0,30.12,WNW,303,8.1,8.1,82,0.00,CLR,,0.00,WeatherDisplay:10.37,2013-01-18 10:36:00,
2013-01-18 05:41:00,51.2,45.9,30.12,NNW,340,13.8,13.8,82,0.00,CLR,,0.00,WeatherDisplay:10.37,2013-01-18 10:41:00,
2013-01-18 05:46:00,51.0,46.0,30.12,North,360,9.2,9.2,83,0.00,CLR,,0.00,WeatherDisplay:10.37,2013-01-18 10:46:00,
2013-01-18 05:51:00,50.9,45.9,30.12,NNW,345,10.4,10.4,83,0.00,CLR,,0.00,WeatherDisplay:10.37,2013-01-18 10:51:00,
2013-01-18 05:56:00,50.7,45.7,30.13,NNW,327,5.8,5.8,83,0.00,CLR,,0.00,WeatherDisplay:10.37,2013-01-18 10:56:00,
2013-01-18 06:01:00,50.6,45.6,30.13,WNW,286,11.5,11.5,83,0.00,CLR,,0.00,WeatherDisplay:10.37,2013-01-18 11:01:00,
2013-01-18 06:06:00,50.5,45.8,30.13,NNW,347,9.2,9.2,84,0.00,CLR,,0.00,WeatherDisplay:10.37,2013-01-18 11:06:00,
2013-01-18 06:11:00,50.5,45.8,30.13,NNW,337,10.4,10.4,84,0.00,CLR,,0.00,WeatherDisplay:10.37,2013-01-18 11:11:00,
2013-01-18 06:16:00,50.5,45.8,30.13,NNW,327,13.8,13.8,84,0.00,CLR,,0.00,WeatherDisplay:10.37,2013-01-18 11:16:00,
2013-01-18 06:21:00,50.4,45.7,30.13,WNW,297,12.7,12.7,84,0.00,CLR,,0.00,WeatherDisplay:10.37,2013-01-18 11:21:00,
2013-01-18 06:26:00,50.5,45.8,30.14,NW,304,9.2,9.2,84,0.00,CLR,,0.00,WeatherDisplay:10.37,2013-01-18 11:26:00,
2013-01-18 06:31:00,50.5,45.8,30.14,WNW,301,12.7,12.7,84,0.00,CLR,,0.00,WeatherDisplay:10.37,2013-01-18 11:31:00,
2013-01-18 06:36:00,50.5,45.8,30.14,WNW,293,12.7,12.7,84,0.00,CLR,,0.00,WeatherDisplay:10.37,2013-01-18 11:36:00,
2013-01-18 06:41:00,50.6,45.6,30.15,North,5,6.9,6.9,83,0.00,CLR,,0.00,WeatherDisplay:10.37,2013-01-18 11:41:00,
2013-01-18 06:46:00,50.6,45.6,30.15,WNW,285,11.5,11.5,83,0.00,CLR,,0.00,WeatherDisplay:10.37,2013-01-18 11:46:00,
2013-01-18 06:51:00,50.6,45.9,30.15,NW,317,5.8,5.8,84,0.00,CLR,,0.00,WeatherDisplay:10.37,2013-01-18 11:51:00,
2013-01-18 06:56:00,50.7,45.7,30.15,NW,309,11.5,11.5,83,0.00,CLR,,0.00,WeatherDisplay:10.37,2013-01-18 11:56:00,
2013-01-18 07:01:00,50.7,45.7,30.15,NW,304,11.5,11.5,83,0.00,CLR,,0.00,WeatherDisplay:10.37,2013-01-18 12:01:00,
2013-01-18 07:06:00,50.8,45.8,30.16,NW,317,13.8,13.8,83,0.00,CLR,,0.00,WeatherDisplay:10.37,2013-01-18 12:06:00,
2013-01-18 07:11:00,50.9,45.9,30.16,WNW,287,13.8,13.8,83,0.00,CLR,,0.00,WeatherDisplay:10.37,2013-01-18 12:11:00,
2013-01-18 07:16:00,51.0,46.0,30.16,West,275,5.0,5.0,83,0.00,CLR,,0.00,WeatherDisplay:10.37,2013-01-18 12:16:00,
2013-01-18 07:21:00,51.0,46.0,30.16,WNW,289,10.4,10.4,83,0.00,CLR,,0.00,WeatherDisplay:10.37,2013-01-18 12:21:00,
2013-01-18 07:26:00,51.1,46.1,30.16,NNW,344,11.5,11.5,83,0.00,CLR,,0.00,WeatherDisplay:10.37,2013-01-18 12:26:00,
2013-01-18 07:31:00,51.2,45.9,30.16,North,5,6.9,6.9,82,0.00,CLR,,0.00,WeatherDisplay:10.37,2013-01-18 12:31:00,
2013-01-18 07:36:00,51.3,46.0,30.16,NW,313,6.9,6.9,82,0.00,CLR,,0.00,WeatherDisplay:10.37,2013-01-18 12:36:00,
2013-01-18 07:41:00,51.6,46.3,30.17,WNW,300,5.8,5.8,82,0.00,CLR,,0.00,WeatherDisplay:10.37,2013-01-18 12:41:00,
2013-01-18 07:46:00,51.9,45.9,30.17,North,360,10.4,10.4,80,0.00,CLR,,0.00,WeatherDisplay:10.37,2013-01-18 12:46:00,
2013-01-18 07:51:00,52.0,45.7,30.17,WNW,294,6.9,6.9,79,0.00,CLR,,0.00,WeatherDisplay:10.37,2013-01-18 12:51:00,
2013-01-18 07:56:00,52.1,45.8,30.17,NNW,333,11.5,11.5,79,0.00,CLR,,0.00,WeatherDisplay:10.37,2013-01-18 12:56:00,
2013-01-18 08:01:00,52.1,45.1,30.17,NW,306,11.5,11.5,77,0.00,CLR,,0.00,WeatherDisplay:10.37,2013-01-18 13:01:00,
2013-01-18 08:06:00,51.9,44.6,30.18,WNW,298,16.1,16.1,76,0.00,CLR,,0.00,WeatherDisplay:10.37,2013-01-18 13:06:00,
2013-01-18 08:11:00,51.8,44.1,30.18,NNW,338,17.3,17.3,75,0.00,CLR,,0.00,WeatherDisplay:10.37,2013-01-18 13:11:00,
2013-01-18 08:16:00,51.9,44.2,30.18,WNW,289,11.5,11.5,75,0.00,CLR,,0.00,WeatherDisplay:10.37,2013-01-18 13:16:00,
2013-01-18 08:21:00,52.0,44.3,30.18,West,278,11.5,11.5,75,0.00,CLR,,0.00,WeatherDisplay:10.37,2013-01-18 13:21:00,
2013-01-18 08:26:00,52.0,44.3,30.18,NW,305,13.8,13.8,75,0.00,CLR,,0.00,WeatherDisplay:10.37,2013-01-18 13:26:00,
2013-01-18 08:31:00,52.3,44.6,30.18,NW,317,10.4,10.4,75,0.00,CLR,,0.00,WeatherDisplay:10.37,2013-01-18 13:31:00,
2013-01-18 08:36:00,52.4,44.0,30.19,WNW,300,11.5,11.5,73,0.00,CLR,,0.00,WeatherDisplay:10.37,2013-01-18 13:36:00,
2013-01-18 08:41:00,52.6,44.2,30.18,NW,315,13.8,13.8,73,0.00,CLR,,0.00,WeatherDisplay:10.37,2013-01-18 13:41:00,
2013-01-18 08:46:00,52.6,44.2,30.19,WNW,293,12.7,12.7,73,0.00,CLR,,0.00,WeatherDisplay:10.37,2013-01-18 13:46:00,
2013-01-18 08:51:00,52.9,44.1,30.19,NW,323,11.5,11.5,72,0.00,CLR,,0.00,WeatherDisplay:10.37,2013-01-18 13:51:00,
2013-01-18 08:56:00,53.2,44.4,30.19,NW,313,12.7,12.7,72,0.00,CLR,,0.00,WeatherDisplay:10.37,2013-01-18 13:56:00,
2013-01-18 09:01:00,53.5,44.3,30.19,NW,308,11.5,11.5,71,0.00,CLR,,0.00,WeatherDisplay:10.37,2013-01-18 14:01:00,
2013-01-18 09:06:00,53.5,44.0,30.20,NW,309,13.0,13.0,70,0.00,CLR,,0.00,WeatherDisplay:10.37,2013-01-18 14:06:00,
2013-01-18 09:11:00,53.5,44.3,30.20,NNW,333,11.5,11.5,71,0.00,CLR,,0.00,WeatherDisplay:10.37,2013-01-18 14:11:00,
2013-01-18 09:16:00,53.8,45.0,30.20,NW,309,9.2,9.2,72,0.00,CLR,,0.00,WeatherDisplay:10.37,2013-01-18 14:16:00,
2013-01-18 09:21:00,54.1,45.3,30.20,NW,308,13.8,13.8,72,0.00,CLR,,0.00,WeatherDisplay:10.37,2013-01-18 14:21:00,
2013-01-18 09:26:00,54.4,45.6,30.20,NW,309,9.2,9.2,72,0.00,CLR,,0.00,WeatherDisplay:10.37,2013-01-18 14:26:00,
2013-01-18 09:31:00,54.6,45.4,30.20,NW,304,7.0,7.0,71,0.00,CLR,,0.00,WeatherDisplay:10.37,2013-01-18 14:31:00,
2013-01-18 09:36:00,54.9,46.0,30.20,NW,325,9.2,9.2,72,0.00,CLR,,0.00,WeatherDisplay:10.37,2013-01-18 14:36:00,
2013-01-18 09:41:00,55.5,46.2,30.20,NW,313,12.7,12.7,71,0.00,CLR,,0.00,WeatherDisplay:10.37,2013-01-18 14:41:00,
2013-01-18 09:46:00,55.5,46.2,30.20,North,360,12.7,12.7,71,0.00,CLR,,0.00,WeatherDisplay:10.37,2013-01-18 14:46:00,
2013-01-18 09:51:00,55.9,46.6,30.20,NNW,327,11.5,11.5,71,0.00,CLR,,0.00,WeatherDisplay:10.37,2013-01-18 14:51:00,
2013-01-18 09:56:00,56.1,46.8,30.20,NNW,336,10.4,10.4,71,0.00,CLR,,0.00,WeatherDisplay:10.37,2013-01-18 14:56:00,
2013-01-18 10:01:00,56.6,47.3,30.20,North,351,11.5,11.5,71,0.00,CLR,,0.00,WeatherDisplay:10.37,2013-01-18 15:01:00,
2013-01-18 10:06:00,56.8,47.5,30.20,NW,319,13.8,13.8,71,0.00,CLR,,0.00,WeatherDisplay:10.37,2013-01-18 15:06:00,
2013-01-18 10:11:00,57.1,47.8,30.20,North,360,5.8,5.8,71,0.00,CLR,,0.00,WeatherDisplay:10.37,2013-01-18 15:11:00,
2013-01-18 10:16:00,57.4,47.7,30.20,NNW,346,11.5,11.5,70,0.00,CLR,,0.00,WeatherDisplay:10.37,2013-01-18 15:16:00,
2013-01-18 10:21:00,57.7,48.0,30.20,NNW,342,9.2,9.2,70,0.00,CLR,,0.00,WeatherDisplay:10.37,2013-01-18 15:21:00,
2013-01-18 10:26:00,57.9,48.2,30.20,North,355,11.5,11.5,70,0.00,CLR,,0.00,WeatherDisplay:10.37,2013-01-18 15:26:00,
2013-01-18 10:31:00,58.2,48.5,30.20,NNW,342,10.4,10.4,70,0.00,CLR,,0.00,WeatherDisplay:10.37,2013-01-18 15:31:00,
2013-01-18 10:36:00,58.4,48.3,30.20,NNW,341,9.2,9.2,69,0.00,CLR,,0.00,WeatherDisplay:10.37,2013-01-18 15:36:00,
2013-01-18 10:41:00,58.6,48.1,30.20,NW,313,9.2,9.2,68,0.00,CLR,,0.00,WeatherDisplay:10.37,2013-01-18 15:41:00,
2013-01-18 10:46:00,58.8,48.6,30.20,WNW,301,10.4,10.4,69,0.00,CLR,,0.00,WeatherDisplay:10.37,2013-01-18 15:46:00,
2013-01-18 10:51:00,59.0,48.4,30.20,NW,311,9.2,9.2,68,0.00,CLR,,0.00,WeatherDisplay:10.37,2013-01-18 15:51:00,
2013-01-18 10:56:00,59.6,49.0,30.19,NW,315,6.0,6.0,68,0.00,CLR,,0.00,WeatherDisplay:10.37,2013-01-18 15:56:00,
2013-01-18 11:01:00,60.0,49.4,30.20,NW,325,10.4,10.4,68,0.00,CLR,,0.00,WeatherDisplay:10.37,2013-01-18 16:01:00,
2013-01-18 11:06:00,60.3,49.7,30.19,North,355,6.9,6.9,68,0.00,CLR,,0.00,WeatherDisplay:10.37,2013-01-18 16:06:00,
2013-01-18 11:11:00,60.7,50.1,30.19,WNW,289,10.4,10.4,68,0.00,CLR,,0.00,WeatherDisplay:10.37,2013-01-18 16:11:00,
2013-01-18 11:16:00,61.1,50.5,30.19,NW,315,9.2,9.2,68,0.00,CLR,,0.00,WeatherDisplay:10.37,2013-01-18 16:16:00,
2013-01-18 11:21:00,61.7,50.2,30.19,WNW,300,4.6,4.6,66,0.00,CLR,,0.00,WeatherDisplay:10.37,2013-01-18 16:21:00,
2013-01-18 11:26:00,61.9,50.4,30.19,NW,317,6.9,6.9,66,0.00,CLR,,0.00,WeatherDisplay:10.37,2013-01-18 16:26:00,
2013-01-18 11:31:00,62.2,51.1,30.18,NNW,342,5.0,5.0,67,0.00,CLR,,0.00,WeatherDisplay:10.37,2013-01-18 16:31:00,
2013-01-18 11:36:00,62.4,50.9,30.18,NNW,342,5.8,5.8,66,0.00,CLR,,0.00,WeatherDisplay:10.37,2013-01-18 16:36:00,
2013-01-18 11:41:00,62.4,51.3,30.18,NNW,340,9.2,9.2,67,0.00,CLR,,0.00,WeatherDisplay:10.37,2013-01-18 16:41:00,
2013-01-18 11:46:00,62.3,51.2,30.18,NW,317,4.6,4.6,67,0.00,CLR,,0.00,WeatherDisplay:10.37,2013-01-18 16:46:00,
2013-01-18 11:51:00,62.9,52.2,30.18,NW,321,5.8,5.8,68,0.00,CLR,,0.00,WeatherDisplay:10.37,2013-01-18 16:51:00,
2013-01-18 11:56:00,63.7,52.5,30.17,NNW,346,10.4,10.4,67,0.00,CLR,,0.00,WeatherDisplay:10.37,2013-01-18 16:56:00,
2013-01-18 12:01:00,63.8,52.6,30.17,NNW,333,11.5,11.5,67,0.00,CLR,,0.00,WeatherDisplay:10.37,2013-01-18 17:01:00,
2013-01-18 12:06:00,64.2,53.0,30.17,NNW,341,3.5,3.5,67,0.00,CLR,,0.00,WeatherDisplay:10.37,2013-01-18 17:06:00,
2013-01-18 12:11:00,65.2,53.1,30.17,North,5,9.2,9.2,65,0.00,CLR,,0.00,WeatherDisplay:10.37,2013-01-18 17:11:00,
2013-01-18 12:16:00,65.0,52.9,30.17,NE,35,5.8,5.8,65,0.00,CLR,,0.00,WeatherDisplay:10.37,2013-01-18 17:16:00,
2013-01-18 12:21:00,65.5,53.4,30.17,NE,44,2.3,2.3,65,0.00,CLR,,0.00,WeatherDisplay:10.37,2013-01-18 17:21:00,
2013-01-18 12:26:00,66.1,53.6,30.16,NNW,333,4.6,4.6,64,0.00,CLR,,0.00,WeatherDisplay:10.37,2013-01-18 17:26:00,
2013-01-18 12:31:00,66.1,53.6,30.16,North,5,6.0,6.0,64,0.00,CLR,,0.00,WeatherDisplay:10.37,2013-01-18 17:31:00,
2013-01-18 12:36:00,66.0,53.5,30.16,NW,311,3.5,3.5,64,0.00,CLR,,0.00,WeatherDisplay:10.37,2013-01-18 17:36:00,
2013-01-18 12:41:00,66.6,54.5,30.15,NE,48,5.8,5.8,65,0.00,CLR,,0.00,WeatherDisplay:10.37,2013-01-18 17:41:00,
2013-01-18 12:46:00,67.0,54.0,30.15,North,360,11.5,11.5,63,0.00,CLR,,0.00,WeatherDisplay:10.37,2013-01-18 17:46:00,
2013-01-18 12:51:00,67.5,54.5,30.15,NNW,338,4.6,4.6,63,0.00,CLR,,0.00,WeatherDisplay:10.37,2013-01-18 17:51:00,
2013-01-18 12:56:00,68.3,55.2,30.15,NW,304,6.9,6.9,63,0.00,CLR,,0.00,WeatherDisplay:10.37,2013-01-18 17:56:00,
2013-01-18 13:01:00,68.8,54.8,30.15,North,349,4.6,4.6,61,0.00,CLR,,0.00,WeatherDisplay:10.37,2013-01-18 18:01:00,
2013-01-18 13:06:00,69.3,54.8,30.14,NW,318,5.8,5.8,60,0.00,CLR,,0.00,WeatherDisplay:10.37,2013-01-18 18:06:00,
2013-01-18 13:11:00,69.3,54.8,30.14,NNE,14,5.8,5.8,60,0.00,CLR,,0.00,WeatherDisplay:10.37,2013-01-18 18:11:00,
2013-01-18 13:16:00,68.8,55.2,30.14,NE,46,4.0,4.0,62,0.00,CLR,,0.00,WeatherDisplay:10.37,2013-01-18 18:16:00,
2013-01-18 13:21:00,68.7,54.7,30.14,East,86,3.5,3.5,61,0.00,CLR,,0.00,WeatherDisplay:10.37,2013-01-18 18:21:00,
2013-01-18 13:26:00,69.0,55.4,30.14,NW,306,9.2,9.2,62,0.00,CLR,,0.00,WeatherDisplay:10.37,2013-01-18 18:26:00,
2013-01-18 13:31:00,69.5,55.5,30.14,North,355,3.5,3.5,61,0.00,CLR,,0.00,WeatherDisplay:10.37,2013-01-18 18:31:00,
2013-01-18 13:36:00,70.2,55.7,30.14,NE,51,4.6,4.6,60,0.00,CLR,,0.00,WeatherDisplay:10.37,2013-01-18 18:36:00,
2013-01-18 13:41:00,70.8,56.7,30.13,North,10,8.1,8.1,61,0.00,CLR,,0.00,WeatherDisplay:10.37,2013-01-18 18:41:00,
2013-01-18 13:46:00,70.9,56.8,30.13,NNW,347,9.0,9.0,61,0.00,CLR,,0.00,WeatherDisplay:10.37,2013-01-18 18:46:00,
2013-01-18 13:51:00,71.0,57.3,30.13,NNE,32,5.0,5.0,62,0.00,CLR,,0.00,WeatherDisplay:10.37,2013-01-18 18:51:00,
2013-01-18 13:56:00,71.5,57.3,30.13,NNE,30,6.9,6.9,61,0.00,CLR,,0.00,WeatherDisplay:10.37,2013-01-18 18:56:00,
2013-01-18 14:01:00,71.9,57.3,30.13,NE,49,11.5,11.5,60,0.00,CLR,,0.00,WeatherDisplay:10.37,2013-01-18 19:01:00,
2013-01-18 14:06:00,71.6,57.0,30.12,NE,48,8.1,8.1,60,0.00,CLR,,0.00,WeatherDisplay:10.37,2013-01-18 19:06:00,
2013-01-18 14:11:00,71.1,57.4,30.12,NE,51,10.4,10.4,62,0.00,CLR,,0.00,WeatherDisplay:10.37,2013-01-18 19:11:00,
2013-01-18 14:16:00,70.4,57.6,30.12,NE,49,6.9,6.9,64,0.00,CLR,,0.00,WeatherDisplay:10.37,2013-01-18 19:16:00,
2013-01-18 14:21:00,69.7,57.8,30.12,NNE,16,11.5,11.5,66,0.00,CLR,,0.00,WeatherDisplay:10.37,2013-01-18 19:21:00,
2013-01-18 14:26:00,69.8,57.9,30.12,NNE,27,11.5,11.5,66,0.00,CLR,,0.00,WeatherDisplay:10.37,2013-01-18 19:26:00,
2013-01-18 14:31:00,70.2,57.9,30.12,NNE,17,11.5,11.5,65,0.00,CLR,,0.00,WeatherDisplay:10.37,2013-01-18 19:31:00,
2013-01-18 14:36:00,70.3,57.5,30.12,ENE,67,10.4,10.4,64,0.00,CLR,,0.00,WeatherDisplay:10.37,2013-01-18 19:36:00,
2013-01-18 14:41:00,69.6,57.7,30.12,NE,49,12.0,12.0,66,0.00,CLR,,0.00,WeatherDisplay:10.37,2013-01-18 19:41:00,
2013-01-18 14:46:00,69.9,58.0,30.12,NNE,25,11.5,11.5,66,0.00,CLR,,0.00,WeatherDisplay:10.37,2013-01-18 19:46:00,
2013-01-18 14:51:00,70.3,57.5,30.12,NE,43,11.5,11.5,64,0.00,CLR,,0.00,WeatherDisplay:10.37,2013-01-18 19:51:00,
2013-01-18 14:56:00,70.6,57.8,30.12,North,11,10.4,10.4,64,0.00,CLR,,0.00,WeatherDisplay:10.37,2013-01-18 19:56:00,
2013-01-18 15:01:00,70.9,58.1,30.12,NNE,32,7.0,7.0,64,0.00,CLR,,0.00,WeatherDisplay:10.37,2013-01-18 20:01:00,
2013-01-18 15:06:00,71.2,58.0,30.12,NNE,22,9.2,9.2,63,0.00,CLR,,0.00,WeatherDisplay:10.37,2013-01-18 20:06:00,
2013-01-18 15:11:00,70.8,57.6,30.12,NE,44,11.5,11.5,63,0.00,CLR,,0.00,WeatherDisplay:10.37,2013-01-18 20:11:00,
2013-01-18 15:16:00,70.2,57.4,30.12,NE,43,10.4,10.4,64,0.00,CLR,,0.00,WeatherDisplay:10.37,2013-01-18 20:16:00,
2013-01-18 15:21:00,69.7,57.8,30.12,NNE,20,9.2,9.2,66,0.00,CLR,,0.00,WeatherDisplay:10.37,2013-01-18 20:21:00,
2013-01-18 15:26:00,69.9,57.2,30.12,NE,34,16.1,16.1,64,0.00,CLR,,0.00,WeatherDisplay:10.37,2013-01-18 20:26:00,
2013-01-18 15:31:00,69.9,57.6,30.12,ENE,58,11.5,11.5,65,0.00,CLR,,0.00,WeatherDisplay:10.37,2013-01-18 20:31:00,
2013-01-18 15:36:00,69.7,57.4,30.12,NE,44,15.0,15.0,65,0.00,CLR,,0.00,WeatherDisplay:10.37,2013-01-18 20:36:00,
2013-01-18 15:41:00,70.3,57.5,30.12,NE,40,15.0,15.0,64,0.00,CLR,,0.00,WeatherDisplay:10.37,2013-01-18 20:41:00,
2013-01-18 15:46:00,70.6,58.3,30.12,NE,56,13.0,13.0,65,0.00,CLR,,0.00,WeatherDisplay:10.37,2013-01-18 20:46:00,
2013-01-18 15:51:00,70.4,58.1,30.12,ENE,72,13.0,13.0,65,0.00,CLR,,0.00,WeatherDisplay:10.37,2013-01-18 20:51:00,
2013-01-18 15:56:00,70.5,57.7,30.12,ENE,69,14.0,14.0,64,0.00,CLR,,0.00,WeatherDisplay:10.37,2013-01-18 20:56:00,
2013-01-18 16:01:00,70.5,56.9,30.12,ENE,67,12.7,12.7,62,0.00,CLR,,0.00,WeatherDisplay:10.37,2013-01-18 21:01:00,
2013-01-18 16:06:00,70.1,56.9,30.12,East,83,12.0,12.0,63,0.00,CLR,,0.00,WeatherDisplay:10.37,2013-01-18 21:06:00,
2013-01-18 16:11:00,69.9,56.7,30.13,ENE,73,6.9,6.9,63,0.00,CLR,,0.00,WeatherDisplay:10.37,2013-01-18 21:11:00,
2013-01-18 16:16:00,69.9,56.3,30.13,North,5,10.4,10.4,62,0.00,CLR,,0.00,WeatherDisplay:10.37,2013-01-18 21:16:00,
2013-01-18 16:21:00,70.1,56.0,30.13,ENE,58,17.3,17.3,61,0.00,CLR,,0.00,WeatherDisplay:10.37,2013-01-18 21:21:00,
2013-01-18 16:26:00,70.2,55.7,30.13,East,79,11.5,11.5,60,0.00,CLR,,0.00,WeatherDisplay:10.37,2013-01-18 21:26:00,
2013-01-18 16:31:00,70.2,55.2,30.13,ENE,64,17.3,17.3,59,0.00,CLR,,0.00,WeatherDisplay:10.37,2013-01-18 21:31:00,
2013-01-18 16:36:00,70.6,55.1,30.13,NNE,19,10.4,10.4,58,0.00,CLR,,0.00,WeatherDisplay:10.37,2013-01-18 21:36:00,
2013-01-18 16:41:00,70.6,55.1,30.13,NNE,18,12.0,12.0,58,0.00,CLR,,0.00,WeatherDisplay:10.37,2013-01-18 21:41:00,
2013-01-18 16:46:00,70.7,55.2,30.13,ENE,78,16.1,16.1,58,0.00,CLR,,0.00,WeatherDisplay:10.37,2013-01-18 21:46:00,
2013-01-18 16:51:00,70.6,55.6,30.13,ENE,61,13.8,13.8,59,0.00,CLR,,0.00,WeatherDisplay:10.37,2013-01-18 21:51:00,
2013-01-18 16:56:00,70.5,55.0,30.14,NNE,22,12.7,12.7,58,0.00,CLR,,0.00,WeatherDisplay:10.37,2013-01-18 21:56:00,
2013-01-18 17:01:00,70.4,55.8,30.14,NE,51,10.4,10.4,60,0.00,CLR,,0.00,WeatherDisplay:10.37,2013-01-18 22:01:00,
2013-01-18 17:06:00,70.2,55.7,30.14,NE,44,11.5,11.5,60,0.00,CLR,,0.00,WeatherDisplay:10.37,2013-01-18 22:06:00,
2013-01-18 17:11:00,70.0,55.0,30.14,ENE,67,10.4,10.4,59,0.00,CLR,,0.00,WeatherDisplay:10.37,2013-01-18 22:11:00,
2013-01-18 17:16:00,69.7,55.6,30.14,ENE,65,10.4,10.4,61,0.00,CLR,,0.00,WeatherDisplay:10.37,2013-01-18 22:16:00,
2013-01-18 17:21:00,69.6,55.6,30.14,ENE,59,13.8,13.8,61,0.00,CLR,,0.00,WeatherDisplay:10.37,2013-01-18 22:21:00,
2013-01-18 17:26:00,69.4,55.8,30.15,ENE,77,11.5,11.5,62,0.00,CLR,,0.00,WeatherDisplay:10.37,2013-01-18 22:26:00,
2013-01-18 17:31:00,69.3,55.7,30.15,ENE,57,11.5,11.5,62,0.00,CLR,,0.00,WeatherDisplay:10.37,2013-01-18 22:31:00,
2013-01-18 17:36:00,69.1,55.5,30.15,ENE,67,10.0,10.0,62,0.00,CLR,,0.00,WeatherDisplay:10.37,2013-01-18 22:36:00,
2013-01-18 17:41:00,68.9,55.3,30.15,ENE,61,10.4,10.4,62,0.00,CLR,,0.00,WeatherDisplay:10.37,2013-01-18 22:41:00,
2013-01-18 17:46:00,68.8,55.7,30.15,NNE,28,9.0,9.0,63,0.00,CLR,,0.00,WeatherDisplay:10.37,2013-01-18 22:46:00,
2013-01-18 17:51:00,68.6,55.5,30.15,ENE,70,10.0,10.0,63,0.00,CLR,,0.00,WeatherDisplay:10.37,2013-01-18 22:51:00,
2013-01-18 17:56:00,68.5,55.4,30.15,NE,40,12.0,12.0,63,0.00,CLR,,0.00,WeatherDisplay:10.37,2013-01-18 22:56:00,
2013-01-18 18:01:00,68.4,55.7,30.15,NE,46,9.2,9.2,64,0.00,CLR,,0.00,WeatherDisplay:10.37,2013-01-18 23:01:00,
2013-01-18 18:06:00,68.4,56.2,30.15,ENE,64,11.5,11.5,65,0.00,CLR,,0.00,WeatherDisplay:10.37,2013-01-18 23:06:00,
2013-01-18 18:11:00,68.4,56.2,30.15,East,83,10.4,10.4,65,0.00,CLR,,0.00,WeatherDisplay:10.37,2013-01-18 23:11:00,
2013-01-18 18:16:00,68.4,56.2,30.16,ENE,68,11.5,11.5,65,0.00,CLR,,0.00,WeatherDisplay:10.37,2013-01-18 23:16:00,
2013-01-18 18:21:00,68.5,57.1,30.16,NE,45,12.7,12.7,67,0.00,CLR,,0.00,WeatherDisplay:10.37,2013-01-18 23:21:00,
2013-01-18 18:26:00,68.5,57.1,30.16,NNE,28,16.1,16.1,67,0.00,CLR,,0.00,WeatherDisplay:10.37,2013-01-18 23:26:00,
2013-01-18 18:31:00,68.5,57.5,30.16,ENE,68,12.7,12.7,68,0.00,CLR,,0.00,WeatherDisplay:10.37,2013-01-18 23:31:00,
2013-01-18 18:36:00,68.5,57.9,30.16,ENE,75,13.8,13.8,69,0.00,CLR,,0.00,WeatherDisplay:10.37,2013-01-18 23:36:00,
2013-01-18 18:41:00,68.6,57.2,30.16,ENE,65,16.1,16.1,67,0.00,CLR,,0.00,WeatherDisplay:10.37,2013-01-18 23:41:00,
2013-01-18 18:46:00,68.6,57.6,30.16,ENE,68,16.1,16.1,68,0.00,CLR,,0.00,WeatherDisplay:10.37,2013-01-18 23:46:00,
2013-01-18 18:51:00,68.5,57.1,30.16,NE,53,10.4,10.4,67,0.00,CLR,,0.00,WeatherDisplay:10.37,2013-01-18 23:51:00,
2013-01-18 18:56:00,68.6,56.8,30.16,ENE,67,16.1,16.1,66,0.00,CLR,,0.00,WeatherDisplay:10.37,2013-01-18 23:56:00,
2013-01-18 19:01:00,68.7,56.9,30.17,ENE,61,9.0,9.0,66,0.00,CLR,,0.00,WeatherDisplay:10.37,2013-01-19 00:01:00,
2013-01-18 19:06:00,68.7,57.3,30.17,NNE,30,10.4,10.4,67,0.00,CLR,,0.00,WeatherDisplay:10.37,2013-01-19 00:06:00,
2013-01-18 19:11:00,68.6,56.8,30.17,ENE,74,10.4,10.4,66,0.00,CLR,,0.00,WeatherDisplay:10.37,2013-01-19 00:11:00,
2013-01-18 19:16:00,68.5,57.1,30.17,ENE,77,11.5,11.5,67,0.00,CLR,,0.00,WeatherDisplay:10.37,2013-01-19 00:16:00,
2013-01-18 19:21:00,68.5,56.7,30.17,NE,55,11.5,11.5,66,0.00,CLR,,0.00,WeatherDisplay:10.37,2013-01-19 00:21:00,
2013-01-18 19:26:00,68.5,56.7,30.17,ENE,58,12.7,12.7,66,0.00,CLR,,0.00,WeatherDisplay:10.37,2013-01-19 00:26:00,
2013-01-18 19:31:00,68.4,56.2,30.17,ENE,63,11.5,11.5,65,0.00,CLR,,0.00,WeatherDisplay:10.37,2013-01-19 00:31:00,
2013-01-18 19:36:00,68.4,56.6,30.17,ENE,57,10.4,10.4,66,0.00,CLR,,0.00,WeatherDisplay:10.37,2013-01-19 00:36:00,
2013-01-18 19:41:00,68.5,56.3,30.17,ENE,64,15.0,15.0,65,0.00,CLR,,0.00,WeatherDisplay:10.37,2013-01-19 00:41:00,
2013-01-18 19:46:00,68.5,55.8,30.17,ENE,60,16.0,16.0,64,0.00,CLR,,0.00,WeatherDisplay:10.37,2013-01-19 00:46:00,
2013-01-18 19:51:00,68.6,55.9,30.17,ENE,60,14.0,14.0,64,0.00,CLR,,0.00,WeatherDisplay:10.37,2013-01-19 00:51:00,
2013-01-18 19:56:00,68.7,55.6,30.17,ENE,57,12.7,12.7,63,0.00,CLR,,0.00,WeatherDisplay:10.37,2013-01-19 00:56:00,
2013-01-18 20:01:00,68.6,55.9,30.17,ENE,59,11.5,11.5,64,0.00,CLR,,0.00,WeatherDisplay:10.37,2013-01-19 01:01:00,
2013-01-18 20:06:00,68.6,56.4,30.17,East,82,10.4,10.4,65,0.00,CLR,,0.00,WeatherDisplay:10.37,2013-01-19 01:06:00,
2013-01-18 20:11:00,68.6,55.9,30.17,ENE,63,13.8,13.8,64,0.00,CLR,,0.00,WeatherDisplay:10.37,2013-01-19 01:11:00,
2013-01-18 20:16:00,68.6,56.4,30.17,ENE,67,9.2,9.2,65,0.00,CLR,,0.00,WeatherDisplay:10.37,2013-01-19 01:16:00,
2013-01-18 20:21:00,68.6,56.4,30.17,NE,55,9.2,9.2,65,0.00,CLR,,0.00,WeatherDisplay:10.37,2013-01-19 01:21:00,
2013-01-18 20:26:00,68.6,55.9,30.17,NE,55,10.4,10.4,64,0.00,CLR,,0.00,WeatherDisplay:10.37,2013-01-19 01:26:00,
2013-01-18 20:31:00,68.5,56.3,30.17,East,99,9.2,9.2,65,0.00,CLR,,0.00,WeatherDisplay:10.37,2013-01-19 01:31:00,
2013-01-18 20:36:00,68.5,56.7,30.17,NE,54,10.4,10.4,66,0.00,CLR,,0.00,WeatherDisplay:10.37,2013-01-19 01:36:00,
2013-01-18 20:41:00,68.5,56.3,30.17,ENE,76,15.0,15.0,65,0.00,CLR,,0.00,WeatherDisplay:10.37,2013-01-19 01:41:00,
2013-01-18 20:46:00,68.6,55.9,30.17,NE,56,9.2,9.2,64,0.00,CLR,,0.00,WeatherDisplay:10.37,2013-01-19 01:46:00,
2013-01-18 20:51:00,68.6,56.4,30.17,ENE,72,12.7,12.7,65,0.00,CLR,,0.00,WeatherDisplay:10.37,2013-01-19 01:51:00,
2013-01-18 20:56:00,68.7,56.5,30.17,ENE,74,10.4,10.4,65,0.00,CLR,,0.00,WeatherDisplay:10.37,2013-01-19 01:56:00,
2013-01-18 21:01:00,68.6,56.8,30.17,NE,46,6.9,6.9,66,0.00,CLR,,0.00,WeatherDisplay:10.37,2013-01-19 02:01:00,
2013-01-18 21:06:00,68.6,56.4,30.17,East,89,11.5,11.5,65,0.00,CLR,,0.00,WeatherDisplay:10.37,2013-01-19 02:06:00,
2013-01-18 21:11:00,68.7,56.5,30.17,East,81,10.4,10.4,65,0.00,CLR,,0.00,WeatherDisplay:10.37,2013-01-19 02:11:00,
2013-01-18 21:16:00,68.8,56.6,30.17,NE,49,10.4,10.4,65,0.00,CLR,,0.00,WeatherDisplay:10.37,2013-01-19 02:16:00,
2013-01-18 21:21:00,68.8,57.0,30.17,East,96,10.4,10.4,66,0.00,CLR,,0.00,WeatherDisplay:10.37,2013-01-19 02:21:00,
2013-01-18 21:26:00,68.8,57.0,30.17,ENE,60,6.0,6.0,66,0.00,CLR,,0.00,WeatherDisplay:10.37,2013-01-19 02:26:00,
2013-01-18 21:31:00,68.8,57.0,30.17,ENE,63,12.7,12.7,66,0.00,CLR,,0.00,WeatherDisplay:10.37,2013-01-19 02:31:00,
2013-01-18 21:36:00,69.0,57.2,30.17,ENE,71,13.8,13.8,66,0.00,CLR,,0.00,WeatherDisplay:10.37,2013-01-19 02:36:00,
2013-01-18 21:41:00,69.0,57.2,30.17,East,94,11.5,11.5,66,0.00,CLR,,0.00,WeatherDisplay:10.37,2013-01-19 02:41:00,
2013-01-18 21:46:00,69.1,56.8,30.17,ENE,64,9.2,9.2,65,0.00,CLR,,0.00,WeatherDisplay:10.37,2013-01-19 02:46:00,
2013-01-18 21:51:00,69.0,56.7,30.17,ENE,71,9.2,9.2,65,0.00,CLR,,0.00,WeatherDisplay:10.37,2013-01-19 02:51:00,
2013-01-18 21:56:00,68.9,57.1,30.17,East,93,7.0,7.0,66,0.00,CLR,,0.00,WeatherDisplay:10.37,2013-01-19 02:56:00,
2013-01-18 22:01:00,68.8,57.0,30.17,ESE,107,10.4,10.4,66,0.00,CLR,,0.00,WeatherDisplay:10.37,2013-01-19 03:01:00,
2013-01-18 22:06:00,68.7,56.9,30.17,ENE,67,6.9,6.9,66,0.00,CLR,,0.00,WeatherDisplay:10.37,2013-01-19 03:06:00,
2013-01-18 22:11:00,68.6,56.8,30.16,ENE,64,11.5,11.5,66,0.00,CLR,,0.00,WeatherDisplay:10.37,2013-01-19 03:11:00,
2013-01-18 22:16:00,68.6,56.8,30.16,East,80,8.1,8.1,66,0.00,CLR,,0.00,WeatherDisplay:10.37,2013-01-19 03:16:00,
2013-01-18 22:21:00,68.6,56.8,30.16,ENE,77,6.0,6.0,66,0.00,CLR,,0.00,WeatherDisplay:10.37,2013-01-19 03:21:00,
2013-01-18 22:26:00,68.6,56.8,30.16,ENE,69,5.8,5.8,66,0.00,CLR,,0.00,WeatherDisplay:10.37,2013-01-19 03:26:00,
2013-01-18 22:31:00,68.6,56.4,30.16,East,101,10.4,10.4,65,0.00,CLR,,0.00,WeatherDisplay:10.37,2013-01-19 03:31:00,
2013-01-18 22:36:00,68.5,56.7,30.16,ENE,71,5.0,5.0,66,0.00,CLR,,0.00,WeatherDisplay:10.37,2013-01-19 03:36:00,
2013-01-18 22:41:00,68.4,56.6,30.17,ENE,62,9.2,9.2,66,0.00,CLR,,0.00,WeatherDisplay:10.37,2013-01-19 03:41:00,
2013-01-18 22:46:00,68.5,56.7,30.16,ENE,67,6.9,6.9,66,0.00,CLR,,0.00,WeatherDisplay:10.37,2013-01-19 03:46:00,
2013-01-18 22:51:00,68.4,56.6,30.16,ENE,69,10.4,10.4,66,0.00,CLR,,0.00,WeatherDisplay:10.37,2013-01-19 03:51:00,
2013-01-18 22:56:00,68.5,57.1,30.16,East,80,5.8,5.8,67,0.00,CLR,,0.00,WeatherDisplay:10.37,2013-01-19 03:56:00,
2013-01-18 23:01:00,68.5,57.5,30.16,East,82,9.0,9.0,68,0.00,CLR,,0.00,WeatherDisplay:10.37,2013-01-19 04:01:00,
2013-01-18 23:06:00,68.5,57.5,30.16,ESE,104,10.0,10.0,68,0.00,CLR,,0.00,WeatherDisplay:10.37,2013-01-19 04:06:00,
2013-01-18 23:11:00,68.5,57.5,30.16,ENE,64,6.9,6.9,68,0.00,CLR,,0.00,WeatherDisplay:10.37,2013-01-19 04:11:00,
2013-01-18 23:16:00,68.6,57.6,30.16,East,94,9.2,9.2,68,0.00,CLR,,0.00,WeatherDisplay:10.37,2013-01-19 04:16:00,
2013-01-18 23:21:00,68.6,57.6,30.16,East,84,9.2,9.2,68,0.00,CLR,,0.00,WeatherDisplay:10.37,2013-01-19 04:21:00,
2013-01-18 23:26:00,68.6,57.2,30.16,ENE,77,5.0,5.0,67,0.00,CLR,,0.00,WeatherDisplay:10.37,2013-01-19 04:26:00,
2013-01-18 23:31:00,68.8,57.4,30.16,ENE,67,11.5,11.5,67,0.00,CLR,,0.00,WeatherDisplay:10.37,2013-01-19 04:31:00,
2013-01-18 23:36:00,69.0,57.6,30.16,East,79,7.0,7.0,67,0.00,CLR,,0.00,WeatherDisplay:10.37,2013-01-19 04:36:00,
2013-01-18 23:41:00,69.0,57.2,30.15,East,79,8.1,8.1,66,0.00,CLR,,0.00,WeatherDisplay:10.37,2013-01-19 04:41:00,
2013-01-18 23:46:00,69.1,57.3,30.15,East,101,10.4,10.4,66,0.00,CLR,,0.00,WeatherDisplay:10.37,2013-01-19 04:46:00,
2013-01-18 23:51:00,69.2,57.4,30.15,ENE,64,6.9,6.9,66,0.00,CLR,,0.00,WeatherDisplay:10.37,2013-01-19 04:51:00,
2013-01-18 23:56:00,69.1,57.7,30.15,East,98,6.9,6.9,67,0.00,CLR,,0.00,WeatherDisplay:10.37,2013-01-19 04:56:00,